Location: Writing-on-Stone Provincial Park
(49.0825°N, 111.6163°W)
Time: 18:37:13
(UTC-07:00)

Amateur Radio Satellites - All Passes

Search period start: 06 March 2015 18:07
Search period end: 07 March 2015 18:07
Location: Writing-on-Stone Provincial Park, 49.0825°N, 111.6163°W

Satellite Date Start Highest point End Downlink Frequencies (MHz)
Time Altitude Azimuth
MOZHAYETS 4 06 Mar 18:22:03 18:26:12 32° 294° (WNW) 18:30:19
BEESAT 3 06 Mar 18:23:16 18:26:52 27° 324° (NW) 18:30:27 437.485
O/OREOS (USA 219) 06 Mar 18:24:48 18:29:27 84° 245° (WSW) 18:34:01 437.305
Cubesat XI-IV 06 Mar 18:41:14 18:46:07 34° 265° (W) 18:51:00 437.490
CUTE-I 06 Mar 18:49:06 18:53:49 30° 266° (W) 18:58:31 437.470
CUTE 1.7 + AOD 2 06 Mar 18:50:16 18:52:00 13° 59° (ENE) 18:53:54 437.475
BEESAT 2 06 Mar 18:54:36 18:57:47 20° 329° (NNW) 19:00:57 435.950
CUBESAT XI-V 06 Mar 18:56:07 19:00:48 59° 101° (E) 19:05:27 437.345
VERMONT LUNAR 06 Mar 18:58:12 19:00:45 19° 187° (S) 19:03:18 437.305
GOMX 1 06 Mar 19:02:54 19:06:47 23° 63° (ENE) 19:10:37 467.674
STRAND 1 06 Mar 19:11:53 19:16:54 49° 99° (E) 19:21:53 437.568
AUBIESAT-1 06 Mar 19:13:50 19:16:23 15° 306° (NW) 19:18:54 437.475
M-CUBED/EXP-1 PRIME 06 Mar 19:16:03 19:18:15 14° 307° (NW) 19:20:23 437.505
AIST 2 06 Mar 19:16:29 19:20:10 26° 325° (NW) 19:23:50 435.215
AAUSAT CUBESAT 2 06 Mar 19:16:40 19:18:48 14° 60° (ENE) 19:21:05 437.432
DOVE 4 06 Mar 19:16:40 19:20:13 21° 63° (ENE) 19:23:44 437.250
BRITE-PL 06 Mar 19:19:42 19:24:51 43° 69° (ENE) 19:29:45 437.365/2234.400
HO-68 06 Mar 19:21:10 19:27:54 48° 63° (ENE) 19:34:43 435.675
COMPASS 1 06 Mar 19:22:11 19:24:56 18° 62° (ENE) 19:27:47 437.405
PRISM 06 Mar 19:23:11 19:27:27 78° 286° (WNW) 19:31:40 437.425
PHONESAT 2.4 06 Mar 19:34:21 19:37:07 21° 186° (S) 19:39:53 2401.200-2431.200
AIST 1 06 Mar 19:36:50 19:38:32 12° 277° (W) 19:40:00
YUBILEINY 06 Mar 19:40:59 19:43:50 11° 322° (NW) 19:46:13 435.215
Oscar 11 06 Mar 19:42:20 19:44:32 14° 59° (ENE) 19:46:54 145.826/435.025
SEEDS 06 Mar 19:54:58 19:58:52 41° 70° (ENE) 20:02:51 437.485
GONETS M04 06 Mar 19:55:57 20:00:40 17° 74° (ENE) 20:05:51
DELFI C3 06 Mar 19:57:16 19:59:25 14° 60° (ENE) 20:01:41 145.870
BEESAT 3 06 Mar 20:05:15 20:06:18 11° 347° (NNW) 20:07:18 437.485
CANX-2 06 Mar 20:05:15 20:09:26 67° 74° (ENE) 20:13:39 2200.000
O/OREOS (USA 219) 06 Mar 20:06:49 20:08:10 11° 262° (W) 20:09:17 437.305
DX 1 06 Mar 20:14:04 20:16:41 16° 59° (ENE) 20:19:27 434.975-435.025
PCSat 06 Mar 20:14:57 20:20:17 61° 120° (ESE) 20:25:39 145.827
CUBEBUG 2 06 Mar 20:18:30 20:21:54 23° 65° (ENE) 20:25:19 437.445
CUTE 1.7 + AOD 2 06 Mar 20:23:08 20:27:21 88° 254° (WSW) 20:31:36 437.475
CINEMA 3 06 Mar 20:27:20 20:31:45 46° 71° (ENE) 20:36:01 145.822/145.860
CUBESAT XI-V 06 Mar 20:34:20 20:37:53 21° 299° (WNW) 20:41:19 437.345
FUNcube-1 06 Mar 20:35:15 20:38:34 23° 65° (ENE) 20:41:55 145.935
UKube-1 06 Mar 20:36:46 20:40:12 24° 63° (ENE) 20:43:42 .
VERMONT LUNAR 06 Mar 20:37:39 20:37:52 10° 203° (SSW) 20:38:01 437.305
ZACube-1 06 Mar 20:38:05 20:41:31 24° 65° (ENE) 20:44:59 437.345
AISAT 06 Mar 20:39:03 20:41:06 13° 57° (ENE) 20:43:19 437.250
GOMX 1 06 Mar 20:39:25 20:44:37 61° 259° (W) 20:49:32 467.674
VELOX 1 06 Mar 20:45:54 20:48:20 15° 58° (ENE) 20:50:54 145.980
AAUSAT CUBESAT 2 06 Mar 20:49:49 20:53:58 75° 259° (W) 20:58:08 437.432
50 SAT 06 Mar 20:51:04 20:52:47 13° 60° (ENE) 20:54:41 437.505
STRAND 1 06 Mar 20:51:31 20:55:54 28° 298° (WNW) 21:00:11 437.568
DOVE 4 06 Mar 20:52:42 20:57:41 62° 260° (W) 21:02:23 437.250
COMPASS 1 06 Mar 20:56:12 21:00:18 56° 260° (W) 21:04:24 437.405
BRITE-PL 06 Mar 20:58:30 21:03:28 33° 266° (W) 21:08:09 437.365/2234.400
AIST 2 06 Mar 20:58:53 21:00:12 11° 348° (NNW) 21:01:28 435.215
PRISM 06 Mar 21:00:54 21:02:17 11° 304° (NW) 21:03:30 437.425
UWE-3 06 Mar 21:06:45 21:11:00 53° 72° (ENE) 21:15:10 435.000/436.395/437.385
HO-68 06 Mar 21:09:01 21:15:46 42° 263° (W) 21:22:30 435.675
PHONESAT 2.4 06 Mar 21:13:27 21:14:48 12° 202° (SSW) 21:16:05 2401.200-2431.200
Oscar 11 06 Mar 21:15:53 21:20:11 80° 255° (WSW) 21:24:32 145.826/435.025
ESTCUBE 1 06 Mar 21:18:36 21:21:15 16° 59° (ENE) 21:24:03 437.505/2401.250
DELFI C3 06 Mar 21:30:07 21:34:09 70° 258° (WSW) 21:38:13 145.870
SEEDS 06 Mar 21:31:35 21:34:54 22° 268° (W) 21:38:10 437.485
HUMSAT D 06 Mar 21:40:03 21:44:06 52° 71° (ENE) 21:48:08 437.325/437.525
RS-15 06 Mar 21:42:54 21:51:17 28° 105° (ESE) 22:00:09 29.354- 29.394
CANX-2 06 Mar 21:43:34 21:45:55 14° 273° (W) 21:48:06 2200.000
BEESAT 3 06 Mar 21:46:00 21:46:14 10° 10° (N) 21:46:30 437.485
GONETS M04 06 Mar 21:47:29 21:56:04 72° 95° (E) 22:04:45
DX 1 06 Mar 21:48:04 21:52:28 73° 257° (WSW) 21:56:53 434.975-435.025
CUBEBUG 2 06 Mar 21:54:11 21:58:26 44° 262° (W) 22:02:34 437.445
ANTELSAT 06 Mar 21:58:46 22:00:58 14° 87° (E) 22:03:22 437.575/2403.000
PCSat 06 Mar 21:59:15 22:04:05 31° 321° (NW) 22:08:55 145.827
CUBEBUG 1 06 Mar 22:00:33 22:04:29 32° 66° (ENE) 22:08:27 437.445
CUTE 1.7 + AOD 2 06 Mar 22:03:42 22:04:03 10° 276° (W) 22:04:09 437.475
CINEMA 3 06 Mar 22:05:28 22:09:12 23° 268° (W) 22:12:44 145.822/145.860
TISAT 1 06 Mar 22:05:38 22:05:56 10° 56° (NE) 22:06:26 437.305
FUNcube-1 06 Mar 22:10:37 22:14:44 43° 262° (W) 22:18:47 145.935
UKube-1 06 Mar 22:11:57 22:16:09 44° 261° (W) 22:20:21 .
AISAT 06 Mar 22:12:34 22:17:06 86° 72° (ENE) 22:21:37 437.250
ZACube-1 06 Mar 22:13:41 22:17:45 40° 263° (W) 22:21:45 437.345
BEESAT 2 06 Mar 22:15:59 22:17:31 12° 16° (NNE) 22:19:07 435.950
SPROUT 06 Mar 22:16:19 22:18:32 14° 59° (ENE) 22:20:55 437.525
VELOX 1 06 Mar 22:19:51 22:24:21 83° 256° (WSW) 22:28:54 145.980
QB50P1 06 Mar 22:20:00 22:21:45 13° 86° (E) 22:23:42 145.935-145.965
50 SAT 06 Mar 22:23:20 22:27:18 77° 257° (WSW) 22:31:16 437.505
QB50P2 06 Mar 22:25:06 22:27:23 14° 88° (E) 22:29:49 145.880/145.840
DUCHIFAT 1 06 Mar 22:35:34 22:38:24 18° 90° (E) 22:41:20 145.980
AIST 2 06 Mar 22:39:24 22:40:40 11° 12° (NNE) 22:42:00 435.215
UWE-3 06 Mar 22:44:51 22:47:54 18° 270° (W) 22:50:48 435.000/436.395/437.385
ESTCUBE 1 06 Mar 22:53:04 22:57:36 78° 257° (WSW) 23:02:12 437.505/2401.250
UNISAT 6 06 Mar 22:55:01 22:59:13 48° 99° (E) 23:03:27 437.425
POPSAT HIP 1 06 Mar 22:58:51 23:02:35 30° 95° (E) 23:06:19 437.405
POLYITAN 1 06 Mar 23:00:43 23:04:30 32° 95° (E) 23:08:18 437.675
HUMSAT D 06 Mar 23:17:23 23:20:14 17° 270° (W) 23:22:57 437.325/437.525
TIGRISAT 06 Mar 23:17:44 23:22:03 80° 103° (ESE) 23:26:24 435.000
NANOSAT C BR1 06 Mar 23:19:54 23:24:02 48° 100° (E) 23:28:06 145.865
DANDE 06 Mar 23:20:35 23:25:46 34° 97° (E) 23:29:50 436.750
BEESAT 3 06 Mar 23:22:24 23:25:47 23° 34° (NNE) 23:29:09 437.485
CUSAT 1 06 Mar 23:22:47 23:27:46 40° 98° (E) 23:31:36 437.405
ANTELSAT 06 Mar 23:34:02 23:38:20 70° 287° (WNW) 23:42:40 437.575/2403.000
TISAT 1 06 Mar 23:36:45 23:41:01 70° 73° (ENE) 23:45:17 437.305
CUBEBUG 1 06 Mar 23:36:48 23:40:51 33° 265° (W) 23:44:52 437.445
BUGSAT 1 06 Mar 23:39:41 23:43:48 58° 100° (E) 23:47:51 437.445
GONETS M04 06 Mar 23:46:15 23:53:51 31° 299° (WNW) 00:01:19
PCSat 06 Mar 23:46:39 23:49:17 13° 346° (NNW) 23:51:52 145.827
SWISSCUBE 06 Mar 23:49:35 23:53:15 23° 61° (ENE) 23:57:02 437.505
SPROUT 06 Mar 23:49:45 23:54:06 82° 258° (WSW) 23:58:28 437.525
RS-15 06 Mar 23:51:25 00:02:21 89° 128° (SE) 00:13:35 29.354- 29.394
AISAT 06 Mar 23:52:31 23:54:26 12° 275° (W) 23:56:07 437.250
BEESAT 2 06 Mar 23:53:08 23:56:57 32° 39° (NE) 00:00:43 435.950
QB50P1 06 Mar 23:54:01 23:58:16 75° 286° (WNW) 00:02:27 145.935-145.965
BEESAT 06 Mar 23:57:10 00:00:57 24° 62° (ENE) 00:04:51 436.000
QB50P2 06 Mar 23:59:35 00:03:49 65° 288° (WNW) 00:08:00 145.880/145.840
VELOX 1 07 Mar 00:00:46 00:01:46 10° 276° (W) 00:02:29 145.980
DUCHIFAT 1 07 Mar 00:10:29 00:14:37 52° 289° (WNW) 00:18:42 145.980
AIST 2 07 Mar 00:17:02 00:20:43 27° 35° (NE) 00:24:22 435.215
ITUPSAT 1 07 Mar 00:26:45 00:31:14 41° 68° (ENE) 00:35:47 437.325
KKS-1 07 Mar 00:31:17 00:32:42 12° 56° (NE) 00:34:18 437.445
UNISAT 6 07 Mar 00:32:28 00:35:46 21° 297° (WNW) 00:39:01 437.425
POPSAT HIP 1 07 Mar 00:34:44 00:38:29 31° 293° (WNW) 00:42:11 437.405
POLYITAN 1 07 Mar 00:36:42 00:40:25 29° 294° (WNW) 00:44:03 437.675
SO-50 07 Mar 00:39:25 00:43:34 34° 118° (ESE) 00:47:53 436.795
TIGRISAT 07 Mar 00:55:58 00:58:19 14° 301° (WNW) 01:00:32 435.000
NANOSAT C BR1 07 Mar 00:56:26 00:59:37 20° 297° (WNW) 01:02:42 145.865
BEESAT 3 07 Mar 01:00:08 01:04:16 67° 235° (SW) 01:08:20 437.485
Oscar 19 07 Mar 01:00:42 01:04:30 21° 90° (E) 01:08:25 437.125/150
DANDE 07 Mar 01:04:00 01:09:06 33° 287° (WNW) 01:13:00 436.750
CUSAT 1 07 Mar 01:06:34 01:10:38 23° 289° (WNW) 01:13:52 437.405
ANTELSAT 07 Mar 01:13:49 01:14:26 10° 304° (NW) 01:14:50 437.575/2403.000
TISAT 1 07 Mar 01:15:00 01:17:22 14° 272° (W) 01:19:34 437.305
BUGSAT 1 07 Mar 01:16:08 01:18:55 17° 299° (WNW) 01:21:34 437.445
SWISSCUBE 07 Mar 01:26:07 01:30:49 55° 260° (W) 01:35:34 437.505
BEESAT 2 07 Mar 01:31:17 01:35:13 40° 239° (WSW) 01:39:04 435.950
QB50P1 07 Mar 01:32:25 01:33:27 11° 304° (NW) 01:34:18 145.935-145.965
PCSat 07 Mar 01:32:46 01:35:08 13° 12° (NNE) 01:37:33 145.827
BEESAT 07 Mar 01:33:55 01:38:34 50° 261° (W) 01:43:15 436.000
YUBILEINY 07 Mar 01:43:03 01:50:49 34° 62° (ENE) 01:58:43 435.215
AIST 2 07 Mar 01:55:24 01:59:38 58° 236° (SW) 02:03:46 435.215
STARS 07 Mar 01:59:36 02:03:49 46° 70° (ENE) 02:08:04 437.465
KKS-1 07 Mar 02:04:10 02:08:39 75° 74° (ENE) 02:13:07 437.445
ITUPSAT 1 07 Mar 02:05:08 02:09:18 28° 267° (W) 02:13:25 437.325
RS-15 07 Mar 02:05:52 02:16:12 43° 338° (NNW) 02:26:49 29.354- 29.394
SO-50 07 Mar 02:19:31 02:24:02 45° 319° (NW) 02:28:42 436.795
Oscar 19 07 Mar 02:39:15 02:44:19 61° 290° (WNW) 02:49:23 437.125/150
ITAMSAT 1 07 Mar 02:48:14 02:53:26 62° 101° (E) 02:58:36 435.822/435.867
Gurwin Techsat 1B 07 Mar 02:48:47 02:53:58 50° 99° (E) 02:59:09 435.225
JAS-2 07 Mar 02:55:12 02:57:46 12° 77° (ENE) 03:00:55 435.910
AUBIESAT-1 07 Mar 02:56:52 02:59:38 23° 59° (ENE) 03:02:35 437.475
M-CUBED/EXP-1 PRIME 07 Mar 02:58:57 03:01:52 26° 60° (ENE) 03:04:59 437.505
AO-7 07 Mar 03:07:05 03:12:19 19° 85° (E) 03:17:55 29.400- 29.500
PCSat 07 Mar 03:15:47 03:20:27 28° 37° (NE) 03:25:09 145.827
STARS 07 Mar 03:37:02 03:40:32 22° 268° (W) 03:43:58 437.465
YUBILEINY 07 Mar 03:39:41 03:48:29 69° 266° (W) 03:57:10 435.215
KKS-1 07 Mar 03:43:26 03:45:54 14° 273° (W) 03:48:11 437.445
MOZHAYETS 4 07 Mar 03:50:36 03:55:01 51° 71° (ENE) 03:59:30
HORYU 2 07 Mar 03:56:18 04:00:43 58° 101° (ESE) 04:05:07 437.375
SO-50 07 Mar 04:02:42 04:05:48 17° 342° (NNW) 04:08:53 436.795
Oscar 19 07 Mar 04:21:01 04:22:47 12° 308° (NW) 04:24:20 437.125/150
RS-15 07 Mar 04:21:52 04:31:59 37° 11° (N) 04:42:31 29.354- 29.394
ITAMSAT 1 07 Mar 04:28:27 04:32:35 24° 300° (WNW) 04:36:36 435.822/435.867
CUBESAT XI-V 07 Mar 04:28:49 04:31:15 14° 57° (ENE) 04:33:51 437.345
Gurwin Techsat 1B 07 Mar 04:29:13 04:33:46 29° 298° (WNW) 04:38:14 435.225
AUBIESAT-1 07 Mar 04:31:23 04:34:26 30° 259° (WSW) 04:37:40 437.475
M-CUBED/EXP-1 PRIME 07 Mar 04:33:57 04:36:51 25° 260° (W) 04:39:52 437.505
JAS-2 07 Mar 04:37:08 04:44:31 57° 98° (E) 04:52:15 435.910
PRISM 07 Mar 04:43:46 04:46:27 17° 61° (ENE) 04:49:17 437.425
STRAND 1 07 Mar 04:54:53 04:58:19 19° 57° (ENE) 05:01:54 437.568
AO-7 07 Mar 04:58:19 05:06:40 78° 107° (ESE) 05:14:59 29.400- 29.500
PCSat 07 Mar 04:58:57 05:04:23 71° 239° (WSW) 05:09:47 145.827
Cubesat XI-IV 07 Mar 05:16:27 05:17:44 11° 82° (E) 05:19:22 437.490
CUTE-I 07 Mar 05:23:10 05:25:22 13° 84° (E) 05:27:50 437.470
MOZHAYETS 4 07 Mar 05:29:04 05:32:35 21° 270° (W) 05:36:02
HORYU 2 07 Mar 05:33:47 05:37:02 20° 299° (WNW) 05:40:11 437.375
YUBILEINY 07 Mar 05:38:44 05:43:45 16° 287° (WNW) 05:48:17 435.215
SO-50 07 Mar 05:45:53 05:48:15 13° 6° (N) 05:50:41 436.795
GONETS M04 07 Mar 05:58:02 06:00:54 12° 40° (NE) 06:04:15
CUBESAT XI-V 07 Mar 06:03:21 06:08:04 89° 74° (ENE) 06:12:50 437.345
PRISM 07 Mar 06:17:26 06:21:34 61° 258° (WSW) 06:25:45 437.425
JAS-2 07 Mar 06:22:31 06:29:23 41° 297° (WNW) 06:36:30 435.910
AIST 1 07 Mar 06:30:48 06:34:51 38° 92° (E) 06:38:59
STRAND 1 07 Mar 06:31:48 06:36:58 80° 255° (WSW) 06:42:11 437.568
RS-15 07 Mar 06:35:37 06:46:52 66° 41° (NE) 06:58:40 29.354- 29.394
PCSat 07 Mar 06:44:49 06:46:57 12° 256° (WSW) 06:48:48 145.827
AO-7 07 Mar 06:51:46 06:58:52 32° 309° (NW) 07:05:49 29.400- 29.500
Cubesat XI-IV 07 Mar 06:53:34 06:58:58 71° 102° (ESE) 07:04:20 437.490
CUTE-I 07 Mar 07:01:02 07:06:27 81° 104° (ESE) 07:11:49 437.470
SO-50 07 Mar 07:26:24 07:30:28 25° 30° (NNE) 07:34:35 436.795
CUBESAT XI-V 07 Mar 07:44:08 07:46:18 13° 276° (W) 07:48:14 437.345
GONETS M04 07 Mar 07:52:33 08:00:50 45° 68° (ENE) 08:09:14
CUTE 1.7 + AOD 2 07 Mar 08:06:11 08:07:56 12° 86° (E) 08:09:52 437.475
AIST 1 07 Mar 08:09:02 08:12:42 25° 292° (WNW) 08:16:19
JAS-2 07 Mar 08:10:19 08:12:44 12° 318° (NW) 08:14:51 435.910
STRAND 1 07 Mar 08:15:04 08:17:09 12° 276° (W) 08:18:58 437.568
ISS 07 Mar 08:22:46 08:25:53 48° 151° (SSE) 08:29:02 145.825
UNISAT 6 07 Mar 08:25:44 08:26:17 10° 56° (NE) 08:27:01 437.425
AAUSAT CUBESAT 2 07 Mar 08:30:27 08:32:32 14° 87° (E) 08:34:47 437.432
HO-68 07 Mar 08:31:44 08:38:02 33° 93° (E) 08:44:26 435.675
Cubesat XI-IV 07 Mar 08:34:34 08:38:37 22° 302° (WNW) 08:42:32 437.490
COMPASS 1 07 Mar 08:36:35 08:39:26 18° 90° (E) 08:42:25 437.405
GOMX 1 07 Mar 08:38:01 08:41:41 27° 93° (E) 08:45:17 467.674
O/OREOS (USA 219) 07 Mar 08:40:55 08:45:20 51° 111° (ESE) 08:49:50 437.305
CUTE-I 07 Mar 08:42:11 08:45:58 19° 303° (WNW) 08:49:37 437.470
TIGRISAT 07 Mar 08:46:06 08:48:36 16° 60° (ENE) 08:51:12 435.000
AO-7 07 Mar 08:46:52 08:49:09 11° 334° (NNW) 08:51:11 29.400- 29.500
RS-15 07 Mar 08:48:21 08:59:08 49° 246° (WSW) 09:10:14 29.354- 29.394
DOVE 4 07 Mar 08:48:32 08:51:57 24° 92° (E) 08:55:22 437.250
BRITE-PL 07 Mar 08:59:09 09:03:38 65° 101° (E) 09:07:51 437.365/2234.400
Oscar 11 07 Mar 09:00:33 09:02:51 14° 87° (E) 09:05:20 145.826/435.025
ANTELSAT 07 Mar 09:01:43 09:04:58 22° 63° (ENE) 09:08:17 437.575/2403.000
BUGSAT 1 07 Mar 09:02:14 09:02:54 10° 56° (NE) 09:03:45 437.445
SO-50 07 Mar 09:06:40 09:11:38 86° 232° (SW) 09:16:35 436.795
DELFI C3 07 Mar 09:07:40 09:09:26 13° 87° (E) 09:11:24 145.870
SEEDS 07 Mar 09:10:52 09:14:57 46° 98° (E) 09:19:04 437.485
QB50P1 07 Mar 09:16:32 09:19:23 18° 61° (ENE) 09:22:21 145.935-145.965
QB50P2 07 Mar 09:21:57 09:25:04 20° 63° (ENE) 09:28:15 145.880/145.840
CANX-2 07 Mar 09:22:21 09:26:39 77° 102° (ESE) 09:30:55 2200.000
DUCHIFAT 1 07 Mar 09:32:00 09:35:24 24° 64° (ENE) 09:38:52 145.980
DX 1 07 Mar 09:33:49 09:36:11 15° 88° (E) 09:38:42 434.975-435.025
CUTE 1.7 + AOD 2 07 Mar 09:40:12 09:44:28 77° 286° (WNW) 09:48:45 437.475
CUBEBUG 2 07 Mar 09:41:23 09:44:53 26° 93° (E) 09:48:27 437.445
GONETS M04 07 Mar 09:49:33 09:57:53 50° 271° (W) 10:06:09
CINEMA 3 07 Mar 09:55:10 09:59:19 62° 101° (E) 10:03:26 145.822/145.860
FUNcube-1 07 Mar 09:55:10 09:58:35 25° 93° (E) 10:02:06 145.935
POPSAT HIP 1 07 Mar 09:55:33 09:59:32 39° 69° (ENE) 10:03:33 437.405
UKube-1 07 Mar 09:55:55 09:59:21 22° 92° (E) 10:02:49 .
CUSAT 1 07 Mar 09:57:02 09:59:11 22° 71° (ENE) 10:01:26 437.405
POLYITAN 1 07 Mar 09:57:41 10:01:42 42° 69° (ENE) 10:05:46 437.675
UNISAT 6 07 Mar 09:58:04 10:02:23 72° 74° (ENE) 10:06:41 437.425
ZACube-1 07 Mar 09:58:17 10:01:50 27° 94° (E) 10:05:27 437.345
DANDE 07 Mar 09:58:21 10:00:12 17° 68° (ENE) 10:02:04 436.750
ISS 07 Mar 09:59:07 10:02:20 58° 351° (N) 10:05:32 145.825
50 SAT 07 Mar 10:00:26 10:00:57 10° 86° (E) 10:01:42 437.505
AISAT 07 Mar 10:01:23 10:03:13 13° 86° (E) 10:05:15 437.250
AAUSAT CUBESAT 2 07 Mar 10:04:32 10:08:43 69° 287° (WNW) 10:12:55 437.432
VELOX 1 07 Mar 10:07:58 10:10:19 14° 87° (E) 10:12:49 145.980
COMPASS 1 07 Mar 10:11:23 10:15:30 52° 288° (WNW) 10:19:36 437.405
GOMX 1 07 Mar 10:16:01 10:19:57 33° 293° (WNW) 10:23:43 467.674
NANOSAT C BR1 07 Mar 10:16:20 10:20:34 63° 72° (ENE) 10:24:48 145.865
HO-68 07 Mar 10:19:09 10:26:13 61° 294° (WNW) 10:33:16 435.675
TIGRISAT 07 Mar 10:20:35 10:24:55 71° 257° (WSW) 10:29:13 435.000
O/OREOS (USA 219) 07 Mar 10:21:14 10:25:05 25° 311° (NW) 10:28:53 437.305
DOVE 4 07 Mar 10:26:00 10:29:56 36° 292° (WNW) 10:33:44 437.250
UWE-3 07 Mar 10:28:56 10:33:05 67° 102° (ESE) 10:37:15 435.000/436.395/437.385
BUGSAT 1 07 Mar 10:33:26 10:37:41 72° 74° (ENE) 10:41:57 437.445
Oscar 11 07 Mar 10:35:15 10:39:35 69° 287° (WNW) 10:43:54 145.826/435.025
ANTELSAT 07 Mar 10:37:21 10:41:33 47° 261° (W) 10:45:43 437.575/2403.000
BRITE-PL 07 Mar 10:38:45 10:41:41 17° 301° (WNW) 10:44:24 437.365/2234.400
DELFI C3 07 Mar 10:41:06 10:45:12 71° 285° (WNW) 10:49:16 145.870
ESTCUBE 1 07 Mar 10:42:50 10:45:46 17° 88° (E) 10:48:50 437.505/2401.250
SEEDS 07 Mar 10:47:15 10:50:33 22° 296° (WNW) 10:53:45 437.485
SO-50 07 Mar 10:48:42 10:51:35 15° 249° (WSW) 10:54:16 436.795
QB50P1 07 Mar 10:50:40 10:54:54 59° 259° (W) 10:59:08 145.935-145.965
HUMSAT D 07 Mar 10:55:50 10:59:54 57° 100° (E) 11:03:59 437.325/437.525
QB50P2 07 Mar 10:56:30 11:00:41 51° 261° (W) 11:04:52 145.880/145.840
CANX-2 07 Mar 10:59:42 11:02:05 14° 300° (WNW) 11:04:19 2200.000
DUCHIFAT 1 07 Mar 11:07:01 11:11:05 41° 262° (W) 11:15:08 145.980
RS-15 07 Mar 11:07:11 11:09:00 10° 267° (W) 11:09:37 29.354- 29.394
DX 1 07 Mar 11:08:38 11:13:00 69° 287° (WNW) 11:17:19 434.975-435.025
CUBEBUG 2 07 Mar 11:17:55 11:21:42 34° 292° (WNW) 11:25:27 437.445
CUTE 1.7 + AOD 2 07 Mar 11:18:30 11:19:44 11° 303° (WNW) 11:20:48 437.475
CUBEBUG 1 07 Mar 11:21:24 11:25:26 34° 96° (E) 11:29:28 437.445
FUNcube-1 07 Mar 11:31:15 11:35:04 36° 292° (WNW) 11:38:53 145.935
UKube-1 07 Mar 11:31:35 11:35:44 43° 291° (WNW) 11:39:50 .
POPSAT HIP 1 07 Mar 11:32:04 11:35:36 24° 267° (W) 11:39:04 437.405
50 SAT 07 Mar 11:32:37 11:36:36 82° 285° (WNW) 11:40:34 437.505
CINEMA 3 07 Mar 11:33:30 11:36:08 16° 299° (WNW) 11:38:39 145.822/145.860
SPROUT 07 Mar 11:34:04 11:36:09 14° 87° (E) 11:38:24 437.525
POLYITAN 1 07 Mar 11:34:24 11:37:51 23° 268° (W) 11:41:12 437.675
ZACube-1 07 Mar 11:34:32 11:38:17 33° 292° (WNW) 11:42:02 437.345
ISS 07 Mar 11:35:47 11:39:00 59° 10° (N) 11:42:13 145.825
AISAT 07 Mar 11:36:03 11:40:32 82° 284° (WNW) 11:44:56 437.250
UNISAT 6 07 Mar 11:37:28 11:39:46 14° 273° (W) 11:41:52 437.425
CUSAT 1 07 Mar 11:41:09 11:41:51 11° 268° (W) 11:42:26 437.405
DANDE 07 Mar 11:41:55 11:43:25 14° 268° (W) 11:44:51 436.750
VELOX 1 07 Mar 11:43:02 11:47:29 72° 287° (WNW) 11:51:53 145.980
NANOSAT C BR1 07 Mar 11:54:17 11:56:54 15° 272° (W) 11:59:24 145.865
UWE-3 07 Mar 12:06:42 12:09:14 15° 299° (WNW) 12:11:37 435.000/436.395/437.385
HO-68 07 Mar 12:08:22 12:12:42 17° 315° (NW) 12:16:48 435.675
BUGSAT 1 07 Mar 12:11:28 12:13:44 14° 273° (W) 12:15:50 437.445
Oscar 11 07 Mar 12:14:29 12:15:02 10° 304° (NW) 12:15:24 145.826/435.025
ESTCUBE 1 07 Mar 12:18:37 12:23:08 63° 288° (WNW) 12:27:38 437.505/2401.250
Oscar 19 07 Mar 12:21:16 12:26:07 45° 68° (ENE) 12:31:01 437.125/150
AO-7 07 Mar 12:23:16 12:26:50 14° 32° (NNE) 12:30:41 29.400- 29.500
ITAMSAT 1 07 Mar 12:32:25 12:36:29 24° 60° (ENE) 12:40:40 435.822/435.867
HUMSAT D 07 Mar 12:32:34 12:35:20 17° 298° (WNW) 12:38:01 437.325/437.525
Gurwin Techsat 1B 07 Mar 12:36:08 12:39:54 21° 58° (ENE) 12:43:48 435.225
DX 1 07 Mar 12:47:35 12:48:30 10° 305° (NW) 12:49:13 434.975-435.025
TISAT 1 07 Mar 12:53:15 12:57:29 72° 103° (ESE) 13:01:40 437.305
CUBEBUG 1 07 Mar 12:57:54 13:01:45 29° 295° (WNW) 13:05:32 437.445
SPROUT 07 Mar 13:08:32 13:12:50 72° 286° (WNW) 13:17:05 437.525
50 SAT 07 Mar 13:10:18 13:10:59 10° 302° (WNW) 13:11:28 437.505
ISS 07 Mar 13:12:17 13:15:25 45° 210° (SSW) 13:18:31 145.825
AISAT 07 Mar 13:14:34 13:16:28 12° 304° (NW) 13:18:13 437.250
VELOX 1 07 Mar 13:21:58 13:23:20 11° 305° (NW) 13:24:31 145.980
SWISSCUBE 07 Mar 13:22:38 13:26:46 28° 94° (E) 13:30:57 437.505
HORYU 2 07 Mar 13:24:56 13:26:57 13° 57° (ENE) 13:29:08 437.375
BEESAT 07 Mar 13:30:10 13:34:26 31° 95° (E) 13:38:42 436.000
KKS-1 07 Mar 13:53:56 13:54:52 11° 85° (E) 13:56:03 437.445
ESTCUBE 1 07 Mar 13:58:42 13:59:12 10° 306° (NW) 13:59:29 437.505/2401.250
ITUPSAT 1 07 Mar 14:00:44 14:05:30 56° 101° (E) 14:10:15 437.325
Oscar 19 07 Mar 14:01:15 14:05:42 28° 267° (W) 14:10:05 437.125/150
AO-7 07 Mar 14:10:00 14:17:32 41° 56° (NE) 14:25:08 29.400- 29.500
ITAMSAT 1 07 Mar 14:10:27 14:15:39 61° 259° (WSW) 14:20:52 435.822/435.867
Gurwin Techsat 1B 07 Mar 14:14:04 14:19:23 74° 256° (WSW) 14:24:45 435.225
TISAT 1 07 Mar 14:30:20 14:32:49 15° 301° (WNW) 14:35:10 437.305
SPROUT 07 Mar 14:47:21 14:48:12 10° 304° (NW) 14:48:51 437.525
YUBILEINY 07 Mar 14:50:18 14:57:32 31° 82° (E) 15:05:01 435.215
JAS-2 07 Mar 14:54:27 14:59:44 36° 61° (ENE) 15:05:42 435.910
HORYU 2 07 Mar 14:58:35 15:03:00 88° 75° (ENE) 15:07:28 437.375
SWISSCUBE 07 Mar 15:00:15 15:04:48 41° 293° (WNW) 15:09:17 437.505
BEESAT 07 Mar 15:07:54 15:12:21 38° 294° (WNW) 15:16:46 436.000
STARS 07 Mar 15:21:37 15:25:54 51° 100° (E) 15:30:10 437.465
KKS-1 07 Mar 15:27:50 15:32:19 87° 105° (ESE) 15:36:45 437.445
BEESAT 2 07 Mar 15:31:04 15:33:10 14° 112° (ESE) 15:35:27 435.950
ITUPSAT 1 07 Mar 15:39:18 15:43:05 23° 299° (WNW) 15:46:45 437.325
Gurwin Techsat 1B 07 Mar 15:58:34 16:00:27 11° 277° (W) 16:02:01 435.225
AIST 2 07 Mar 16:00:13 16:01:22 11° 110° (ESE) 16:02:45 435.215
AO-7 07 Mar 16:01:53 16:10:07 60° 257° (WSW) 16:18:21 29.400- 29.500
AUBIESAT-1 07 Mar 16:08:59 16:10:50 13° 93° (E) 16:12:57 437.475
M-CUBED/EXP-1 PRIME 07 Mar 16:11:17 16:13:44 15° 95° (E) 16:16:25 437.505
AIST 1 07 Mar 16:34:25 16:37:14 17° 63° (ENE) 16:40:10
BEESAT 3 07 Mar 16:34:55 16:38:58 61° 125° (SE) 16:43:05 437.485
VERMONT LUNAR 07 Mar 16:35:31 16:37:45 16° 167° (SSE) 16:40:01 437.305
HORYU 2 07 Mar 16:38:49 16:40:25 11° 275° (W) 16:41:48 437.375
JAS-2 07 Mar 16:39:05 16:44:41 48° 264° (W) 16:51:01 435.910
Cubesat XI-IV 07 Mar 16:40:54 16:45:27 29° 62° (ENE) 16:50:05 437.490
YUBILEINY 07 Mar 16:45:02 16:53:46 69° 284° (WNW) 17:02:37 435.215
CUTE-I 07 Mar 16:48:01 16:52:43 33° 63° (ENE) 16:57:30 437.470
STARS 07 Mar 16:58:44 17:02:05 21° 298° (WNW) 17:05:20 437.465
KKS-1 07 Mar 17:06:01 17:08:23 14° 302° (WNW) 17:10:35 437.445
BEESAT 2 07 Mar 17:06:40 17:10:49 81° 309° (NW) 17:15:02 435.950
O/OREOS (USA 219) 07 Mar 17:07:48 17:11:50 30° 51° (NE) 17:15:54 437.305
MOZHAYETS 4 07 Mar 17:18:33 17:23:13 71° 102° (ESE) 17:27:52
PHONESAT 2.4 07 Mar 17:19:07 17:21:34 17° 167° (SSE) 17:24:02 2401.200-2431.200
HO-68 07 Mar 17:23:37 17:25:13 11° 37° (NE) 17:27:08 435.675
AIST 2 07 Mar 17:35:02 17:39:19 79° 127° (SE) 17:43:39 435.215
AUBIESAT-1 07 Mar 17:41:52 17:46:14 89° 291° (WNW) 17:50:54 437.475
M-CUBED/EXP-1 PRIME 07 Mar 17:44:45 17:49:06 77° 290° (WNW) 17:53:44 437.505
CUBESAT XI-V 07 Mar 17:57:06 18:00:11 17° 88° (E) 18:03:23 437.345
PRISM 07 Mar 17:57:21 17:59:41 15° 88° (E) 18:02:11 437.425
